Terug naar catalogus

WESTFORD NEEDLES

ActiefPO
NORAD 2949·DEBRIS·🇺🇸 United States

Gelanceerd May 9, 1963 vanaf Vandenberg Space Force Base

Loading…

Volgende Passages (komende 24 uur)

TLE

VersSource: Space-Track

Epoch: Sep 14, 2026, 11:45 UTC

1 02949U 63014AS  26257.49020941  .00002989  00000-0  70594-1 0  9993
2 02949  85.4389 341.6950 2260828 339.4442  21.4627  8.85464129403712

Volg WESTFORD NEEDLES in realtime met AllMySat

Download on the App Store